Wind_Speed
15 16 15 14 16 21 23 23 24 25 25 24 24 24 23 22 21 21 19 17 18 16 14 14 5 9 5 6 12 16 16 12 10 14 19 14 17 15 13 17 9 1 5 14 23
16 16 17 15 15 16 19 22 23 24 24 23 22 20 19 19 19 21 16 19 16 13 12 11 9 3 7 9 2 4 9 11 7 13 19 12 14 14 11 12 12 11 16 14 18
17 17 16 17 17 15 14 15 18 21 22 21 20 17 15 14 14 12 21 19 18 15 15 13 6 8 10 5 1 4 8 6 13 11 11 17 12 4 11 15 16 10 13 14 16
18 18 17 16 17 16 13 13 15 18 20 19 15 13 12 10 4 12 14 20 19 18 18 20 8 8 10 4 2 3 10 8 9 5 17 12 9 12 1 20 14 10 10 12 12
18 18 17 17 16 18 14 12 14 15 17 14 12 12 11 12 16 6 15 21 22 21 21 17 11 10 9 5 4 7 9 8 8 13 13 12 15 14 17 18 14 12 11 11 13
19 18 17 17 16 16 15 13 14 14 14 12 12 12 13 11 8 8 16 23 24 23 24 15 14 10 7 6 5 8 8 10 12 6 6 13 11 14 15 17 12 15 13 12 13
18 18 17 17 16 15 15 13 14 13 11 11 12 12 14 13 13 12 13 19 23 25 22 16 14 10 11 11 6 10 11 10 8 15 17 11 12 13 15 15 16 15 13 12 12
18 18 18 18 17 16 14 13 14 13 9 9 12 10 10 15 14 18 16 21 24 24 16 13 11 14 14 12 9 13 15 14 15 14 12 7 8 10 12 12 11 11 10 9 11
19 18 19 18 18 16 16 10 12 13 8 9 10 8 7 13 20 18 21 23 24 20 17 14 16 15 14 16 16 18 19 19 15 10 8 8 11 11 11 11 12 14 13 12 8
20 19 18 18 18 16 16 10 7 9 11 8 8 4 7 11 15 20 20 23 22 21 19 18 20 17 20 23 26 20 20 24 16 16 12 16 12 13 14 12 14 15 14 14 11
22 20 18 18 18 17 14 11 4 18 11 13 6 9 8 7 14 20 24 22 22 22 24 21 24 24 22 22 20 16 14 17 11 19 22 12 20 20 17 13 14 16 15 14 13
23 21 18 17 17 17 14 11 4 13 23 20 19 17 7 14 17 20 25 27 28 27 24 23 30 22 20 21 22 20 12 15 17 14 13 12 16 18 18 16 15 17 17 17 17
24 21 19 16 16 17 13 10 12 13 21 20 21 24 19 19 18 24 28 27 28 27 28 29 26 23 20 21 21 20 16 13 18 14 9 11 17 21 14 17 17 18 18 19 22
24 22 20 15 17 14 4 4 8 10 19 24 21 26 26 22 22 22 28 27 25 29 26 26 23 24 23 22 20 23 17 18 20 14 17 19 22 27 25 20 20 22 22 22 23
23 23 19 18 15 15 10 11 9 1 7 7 23 19 26 28 23 27 28 29 24 25 28 29 26 29 27 25 22 20 18 19 16 17 19 18 17 25 24 24 24 26 26 24 23
23 22 19 21 13 13 14 10 7 8 13 5 18 20 25 26 26 26 28 31 25 22 26 25 22 24 26 22 21 20 12 19 15 18 24 24 18 13 21 30 34 23 26 26 25
23 23 22 21 11 18 17 15 11 15 18 11 19 21 25 26 29 32 32 36 35 28 30 26 27 22 22 23 23 20 17 13 12 15 16 22 24 21 19 21 22 21 29 30 26
23 24 23 19 17 17 15 17 21 22 25 14 15 19 25 26 30 33 33 35 35 28 27 29 29 26 25 27 23 22 21 17 13 11 17 17 12 25 12 16 11 17 26 25 30
22 23 24 18 19 20 22 22 27 26 21 21 15 20 27 29 28 33 35 36 35 34 30 30 28 27 27 24 25 20 26 24 24 19 10 10 14 15 15 12 11 9 14 25 22
19 22 20 18 21 22 26 32 27 30 28 18 19 23 27 30 33 35 36 34 34 32 33 25 22 27 27 23 23 23 19 19 24 10 11 12 14 19 21 14 9 8 13 14 20
17 16 7 17 18 23 30 31 29 31 26 18 20 16 23 30 34 33 30 30 34 32 33 35 25 27 29 30 30 28 20 17 19 19 10 10 6 15 14 11 9 7 8 10 14
14 10 12 14 17 22 28 29 25 28 23 18 23 23 19 21 33 35 33 33 32 34 35 32 20 23 38 26 27 27 24 16 19 14 15 16 8 13 11 10 12 9 6 8 12
15 16 11 16 22 24 24 28 27 28 26 21 24 28 20 21 26 38 33 31 30 35 38 30 26 18 20 28 29 27 25 27 23 21 22 17 8 11 11 12 10 9 6 7 11
12 6 14 21 22 24 24 25 24 28 31 22 20 23 26 26 23 26 34 29 34 32 35 30 33 26 25 26 27 31 29 28 31 26 25 22 8 10 10 12 11 6 4 5 10
10 11 15 13 19 23 25 24 22 28 29 23 19 22 19 18 21 22 26 33 30 36 36 33 24 28 29 29 25 25 30 29 30 31 27 20 19 24 12 18 12 16 12 10 11
17 17 19 24 8 12 26 26 23 26 28 28 24 20 20 21 12 7 10 17 40 24 22 25 21 21 26 26 26 29 28 29 30 29 30 27 26 21 19 7 10 6 9 12 13
17 18 22 25 9 11 19 19 22 15 26 26 26 19 19 16 15 17 6 4 8 25 29 27 28 27 27 25 27 32 31 31 28 28 26 25 17 12 13 16 12 8 13 13 21
Wind_Direction
320 324 319 310 299 276 270 275 279 283 288 290 288 282 275 268 258 243 234 234 233 236 228 221 214 176 196 245 258 272 275 110 73 103 121 121 121 115 133 131 107 189 184 139 138
314 319 322 311 318 300 280 276 283 289 293 295 291 283 274 266 257 237 219 222 219 213 197 188 162 157 229 268 237 160 39 118 113 129 136 129 122 135 138 140 142 148 148 141 143
309 312 319 313 318 312 294 286 288 294 297 298 293 284 274 263 259 238 212 211 206 195 181 168 233 237 251 253 353 343 111 99 105 84 98 97 95 344 136 144 153 167 153 145 151
306 307 312 315 310 317 302 293 297 302 302 301 294 283 270 244 180 233 213 202 197 188 179 168 220 233 239 211 193 118 83 100 107 104 86 94 33 25 206 136 175 159 159 145 149
303 304 307 313 305 315 305 296 304 308 306 300 294 281 263 233 201 236 201 197 194 186 178 173 205 214 236 189 182 122 119 111 118 111 101 79 71 89 116 143 167 166 163 155 157
300 302 303 308 305 307 305 297 304 310 304 298 291 278 254 225 205 215 202 191 189 183 176 180 199 218 252 187 217 142 140 142 134 110 96 91 83 110 132 140 156 156 163 161 163
298 299 300 302 305 298 302 294 303 307 301 295 296 280 244 180 190 231 194 184 186 179 177 187 202 239 210 181 154 155 147 146 144 144 107 98 87 113 138 145 143 150 147 155 174
299 297 298 298 301 294 295 288 302 302 295 285 303 282 212 206 208 217 186 182 183 179 184 205 213 215 226 193 189 171 167 175 166 169 143 155 112 134 136 148 155 147 156 173 188
295 295 295 295 296 292 293 277 302 301 283 271 295 288 203 254 223 201 185 185 175 191 185 206 222 211 208 194 187 197 196 170 158 190 213 228 169 161 156 158 168 170 182 188 193
289 292 291 291 292 290 292 272 305 312 289 249 269 271 262 249 213 190 188 185 182 189 195 209 204 208 218 191 205 201 204 172 188 192 184 162 174 173 173 178 178 179 187 185 187
287 287 287 287 289 289 287 271 338 311 288 239 294 247 323 187 200 187 179 184 186 191 197 209 198 207 200 199 211 212 222 184 247 188 161 177 175 185 179 184 186 187 183 185 182
280 283 283 283 284 284 283 260 193 310 285 261 237 236 229 196 188 187 178 184 189 194 197 196 208 206 204 207 219 225 223 218 205 182 194 160 172 192 186 187 193 195 192 187 189
277 277 278 279 278 274 282 261 285 292 287 259 238 228 206 202 204 192 185 189 194 196 200 202 205 210 212 210 219 234 228 230 210 183 198 225 160 180 218 198 196 202 204 197 195
276 271 273 271 273 268 307 320 291 306 290 270 233 216 207 206 208 200 195 186 195 201 202 210 208 214 215 218 211 225 224 240 228 195 217 206 233 219 199 198 201 204 205 202 198
272 268 265 264 253 257 207 200 263 249 273 229 197 193 199 207 194 199 200 192 200 202 204 213 215 214 219 223 221 229 216 225 229 240 237 241 235 180 197 202 207 213 207 202 205
270 263 256 260 251 246 240 243 244 237 243 204 174 189 190 202 199 196 198 198 205 210 213 219 221 214 216 218 214 211 236 210 225 247 254 234 225 184 220 221 224 217 216 210 206
268 262 253 247 236 233 230 209 231 232 233 247 176 196 197 200 196 195 196 199 205 208 213 215 217 207 205 204 205 207 208 208 226 231 242 238 229 232 203 225 235 214 204 212 207
266 261 252 238 228 232 218 211 231 231 235 227 200 200 208 201 201 196 199 203 207 210 209 208 218 204 202 206 201 201 212 213 208 230 232 217 191 231 207 203 214 225 195 209 214
270 260 250 234 225 222 214 224 221 228 224 237 242 209 210 207 203 196 204 207 205 206 213 200 219 206 204 209 205 200 230 231 258 269 261 204 218 231 230 214 216 216 225 224 224
274 265 251 243 224 216 217 229 232 234 240 275 258 223 208 205 206 199 205 211 210 210 214 202 217 199 208 208 215 218 212 232 246 266 284 247 241 229 179 182 199 208 217 224 246
281 273 282 227 220 213 219 230 236 236 252 260 246 254 223 209 209 206 210 213 210 209 215 214 202 201 200 204 213 214 227 223 237 233 266 260 72 113 151 166 174 199 219 233 240
267 246 219 233 225 221 228 232 235 240 232 243 235 248 270 246 217 218 208 210 207 208 214 222 236 244 201 210 212 224 213 224 243 258 263 287 291 169 162 177 194 200 217 227 226
256 221 216 219 232 229 236 238 240 235 235 245 233 238 250 252 246 222 222 215 210 209 213 217 227 243 229 210 212 220 225 223 229 240 258 254 202 174 177 176 179 184 178 240 253
249 242 235 235 236 231 233 237 238 229 228 237 230 236 238 251 246 240 215 219 212 212 216 216 219 230 241 228 209 209 221 230 245 238 243 239 189 199 224 201 194 208 245 293 262
234 207 289 235 242 241 237 242 243 230 226 235 236 254 237 241 238 238 225 215 216 220 208 219 223 231 232 248 249 237 223 227 234 252 264 241 218 248 214 230 227 214 269 295 289
228 232 212 222 233 259 224 233 243 224 220 221 225 239 226 232 260 282 262 243 221 201 188 200 218 225 242 244 240 248 252 225 227 231 243 250 240 277 194 187 225 249 255 264 280
258 250 244 228 265 251 227 231 239 254 218 219 210 225 247 250 200 242 259 220 170 201 202 205 212 223 240 237 247 254 246 244 244 238 240 260 263 158 151 203 239 258 282 288 309
Height
3175 3173 3171 3169 3167 3166 3166 3165 3164 3164 3163 3162 3160 3159 3158 3157 3158 3160 3162 3165 3167 3170 3173 3174 3176 3176 3175 3174 3172 3170 3178 3173 3176 3175 3180 3184 3187 3190 3191 3190 3191 3190 3189 3190 3193
3172 3171 3169 3166 3165 3163 3162 3162 3161 3160 3159 3158 3156 3154 3154 3153 3153 3154 3161 3161 3165 3168 3171 3173 3175 3178 3177 3174 3178 3179 3184 3176 3177 3177 3178 3185 3188 3191 3195 3194 3194 3191 3191 3191 3194
3170 3168 3166 3165 3162 3161 3159 3159 3158 3156 3154 3153 3151 3150 3150 3150 3151 3151 3153 3158 3162 3166 3169 3170 3174 3179 3177 3177 3179 3177 3176 3178 3178 3180 3180 3185 3186 3187 3182 3193 3193 3191 3192 3193 3195
3167 3166 3164 3162 3161 3158 3157 3156 3155 3154 3151 3149 3148 3147 3147 3148 3152 3148 3152 3156 3160 3164 3168 3171 3173 3176 3177 3178 3178 3179 3178 3178 3181 3181 3184 3187 3187 3185 3184 3191 3193 3193 3194 3194 3196
3164 3163 3162 3160 3158 3157 3155 3154 3152 3150 3148 3146 3146 3145 3144 3145 3147 3147 3149 3154 3158 3162 3167 3171 3175 3175 3176 3178 3179 3180 3179 3182 3183 3185 3186 3186 3189 3190 3192 3194 3192 3193 3195 3195 3197
3160 3159 3159 3157 3155 3154 3152 3151 3149 3147 3146 3144 3143 3142 3142 3144 3147 3147 3147 3151 3156 3161 3166 3170 3175 3175 3177 3179 3180 3179 3182 3184 3184 3186 3187 3188 3191 3191 3194 3193 3193 3194 3196 3197 3199
3157 3156 3155 3154 3152 3151 3150 3149 3147 3144 3143 3142 3141 3139 3139 3143 3145 3145 3147 3151 3155 3161 3165 3170 3174 3179 3177 3179 3180 3181 3183 3184 3186 3187 3188 3189 3192 3192 3194 3195 3195 3196 3197 3199 3202
3153 3152 3151 3150 3149 3148 3146 3146 3145 3143 3141 3140 3139 3137 3137 3139 3140 3143 3147 3150 3154 3160 3166 3172 3175 3175 3176 3179 3181 3181 3183 3183 3185 3185 3189 3192 3195 3194 3195 3196 3198 3198 3200 3201 3202
3149 3148 3147 3146 3145 3144 3143 3142 3143 3141 3139 3138 3138 3136 3135 3136 3138 3141 3145 3149 3154 3161 3166 3172 3174 3174 3174 3177 3179 3179 3176 3181 3184 3182 3187 3192 3194 3195 3196 3197 3199 3201 3202 3202 3202
3145 3144 3143 3142 3141 3140 3140 3140 3139 3139 3138 3136 3137 3138 3137 3136 3136 3140 3145 3151 3156 3161 3166 3168 3171 3172 3171 3172 3172 3173 3177 3176 3180 3182 3182 3187 3191 3194 3196 3197 3199 3200 3201 3201 3202
3141 3140 3139 3138 3138 3137 3138 3138 3140 3138 3135 3134 3137 3135 3136 3135 3139 3139 3146 3151 3156 3160 3162 3165 3169 3167 3168 3170 3169 3170 3171 3178 3180 3177 3178 3184 3185 3189 3192 3195 3197 3199 3199 3201 3201
3136 3136 3135 3134 3134 3134 3133 3134 3134 3137 3130 3129 3129 3132 3135 3137 3138 3140 3145 3150 3152 3155 3161 3165 3162 3164 3166 3168 3168 3168 3169 3171 3177 3177 3179 3183 3187 3188 3191 3191 3195 3197 3197 3200 3201
3131 3131 3131 3130 3130 3130 3131 3131 3131 3130 3128 3121 3123 3127 3132 3136 3136 3138 3142 3147 3150 3154 3156 3158 3161 3162 3163 3165 3167 3166 3169 3169 3172 3175 3179 3182 3181 3183 3192 3192 3191 3195 3196 3197 3198
3126 3126 3126 3127 3127 3127 3129 3131 3131 3131 3125 3114 3116 3117 3126 3131 3133 3137 3139 3146 3149 3150 3154 3156 3158 3159 3161 3162 3166 3166 3169 3169 3170 3171 3173 3176 3177 3175 3184 3186 3187 3188 3190 3194 3195
3121 3120 3122 3121 3123 3124 3126 3124 3127 3128 3123 3102 3107 3115 3121 3125 3131 3132 3137 3142 3145 3147 3152 3151 3152 3155 3157 3159 3163 3165 3167 3168 3168 3169 3171 3171 3174 3168 3180 3179 3181 3184 3186 3190 3192
3115 3114 3116 3116 3119 3121 3122 3124 3126 3129 3113 3104 3106 3112 3117 3122 3125 3131 3134 3139 3142 3146 3147 3147 3150 3151 3154 3157 3160 3163 3165 3164 3167 3168 3165 3165 3167 3170 3174 3176 3177 3184 3187 3189 3189
3109 3109 3110 3111 3115 3114 3116 3120 3125 3117 3108 3103 3105 3109 3113 3117 3121 3124 3128 3132 3134 3138 3140 3144 3144 3147 3151 3154 3157 3159 3162 3163 3165 3162 3158 3156 3159 3162 3165 3170 3172 3173 3173 3184 3185
3103 3102 3104 3107 3108 3111 3114 3117 3114 3109 3105 3097 3101 3107 3109 3113 3116 3119 3124 3127 3131 3134 3136 3138 3139 3142 3146 3148 3150 3155 3158 3156 3156 3149 3148 3150 3155 3159 3160 3162 3164 3168 3169 3175 3177
3096 3096 3096 3102 3103 3105 3109 3108 3104 3103 3100 3100 3099 3100 3104 3107 3112 3114 3118 3122 3126 3128 3130 3132 3135 3138 3142 3145 3148 3153 3154 3153 3150 3147 3146 3149 3152 3156 3158 3162 3164 3168 3173 3172 3177
3090 3089 3092 3094 3096 3099 3102 3098 3100 3097 3095 3098 3096 3094 3098 3102 3106 3107 3113 3118 3121 3125 3124 3129 3132 3133 3139 3144 3145 3147 3152 3153 3149 3147 3147 3142 3146 3145 3151 3158 3162 3165 3168 3172 3169
3086 3086 3089 3088 3091 3093 3092 3093 3094 3092 3096 3097 3094 3091 3093 3096 3100 3101 3107 3114 3117 3120 3121 3122 3124 3128 3133 3135 3140 3143 3146 3147 3147 3147 3143 3143 3150 3148 3152 3157 3160 3163 3166 3169 3171
3083 3085 3088 3086 3088 3087 3087 3089 3091 3091 3092 3093 3093 3091 3090 3090 3093 3096 3100 3105 3111 3115 3116 3118 3122 3121 3123 3129 3135 3138 3141 3144 3145 3145 3146 3145 3147 3147 3151 3154 3157 3159 3162 3164 3167
3077 3079 3084 3085 3083 3084 3085 3086 3087 3087 3087 3090 3091 3090 3090 3089 3089 3090 3095 3099 3104 3108 3111 3116 3118 3119 3121 3125 3128 3133 3137 3140 3143 3143 3142 3144 3145 3146 3149 3152 3154 3156 3157 3159 3161
3075 3076 3079 3080 3079 3081 3081 3081 3082 3082 3083 3085 3086 3087 3088 3086 3084 3085 3089 3094 3098 3102 3107 3112 3114 3116 3116 3120 3123 3127 3131 3135 3136 3136 3138 3139 3144 3149 3148 3149 3150 3153 3154 3155 3157
3071 3071 3075 3073 3075 3075 3075 3076 3075 3077 3079 3081 3083 3082 3083 3084 3083 3083 3085 3089 3092 3095 3099 3105 3109 3114 3116 3117 3119 3121 3125 3128 3130 3132 3134 3135 3140 3143 3147 3154 3149 3147 3149 3150 3152
3065 3062 3063 3065 3066 3068 3069 3070 3072 3071 3074 3077 3081 3080 3081 3082 3081 3080 3079 3081 3084 3088 3095 3100 3105 3111 3114 3115 3116 3117 3117 3119 3123 3126 3127 3130 3133 3128 3139 3141 3144 3143 3144 3146 3143
3062 3062 3062 3062 3065 3067 3067 3067 3066 3067 3068 3073 3072 3075 3077 3073 3078 3079 3078 3079 3080 3082 3091 3098 3103 3109 3110 3113 3114 3112 3112 3113 3115 3119 3123 3125 3131 3129 3130 3136 3135 3136 3138 3138 3137